Location: Kerb�bon
(47.7970°N, 3.3487°W)
Time: 13:19:57
(UTC+00:00)

ATLAS 5 CENTAUR R/B - Pass Details

Date: 12 May 2021
Orbit: 513 x 1144 km, 63.3° (Epoch: 18 June)

Event Time Altitude Azimuth Distance (km) Brightness Sun altitude
Rises 20:18:18 0° 317° (NW) 3,227 7.4 -6.1°
Reaches altitude 10° 20:20:33 10° 315° (NW) 2,388 6.3 -6.4°
Maximum altitude 20:26:05 68° 234° (SW) 976 2.6 -7.1°
Drops below altitude 10° 20:32:38 10° 153° (SSE) 2,803 4.3 -8.0°
Enters shadow 20:33:28 - 152° (SSE) 3,105 4.6 -8.1°
